Flag Weather past 2 weeks in Tórshavn, Faroe Islands, Faroe Islands

Now
48 °F

Passing clouds.


Feels Like: 42 °F
Forecast: N/A
Wind: 18 mph from Southeast

Location: Soervaag / Vagar

Current Time: Nov 28, 2014 at 11:33:00 PM

Latest Report: Nov 28, 2014 at 11:20 PM


Visibility: 6 mi

Pressure: 29.86 "Hg

Humidity: 94%

Dew point: 46 °F

Location of TórshavnLocation

Historic Weather in Tórshavn — Graph

°F

Tórshavn temperature yesterday

Maximum temperature yesterday: 46 °F (at 10:50 AM)
Minimum temperature yesterday: 37 °F (at 3:20 AM)
Average temperature yesterday: 44 °F

Past Weeks' High & Low Weather Summary

 TemperatureHumidityPressure
High52 °F (Nov 14, 5:20 PM)100% (Nov 14, 4:20 AM)30.30 "Hg (Nov 14, 4:20 AM)
Low37 °F (Nov 23, 9:20 PM)71% (Nov 25, 12:20 AM)29.56 "Hg (Nov 13, 11:50 PM)
Average47 °F91%29.89 "Hg
* Reported Nov 13 10:20 PM — Nov 28 10:20 PM, Tórshavn, Weather by CustomWeather, © 2014

Note: Actual official high and low records may vary slightly from our data, if they occured in-between our weather recording intervals... More about our weather records

Advertising

Tórshavn weather history for previous 24 hours

 ConditionsComfort  
Time TempWeatherWind HumidityBarometerVisibility
10:20 PM
Nov 28
48 °FPassing clouds.18 mph94%29.86 "HgN/A
9:50 PM48 °FPassing clouds.16 mph94%29.89 "HgN/A
9:20 PM48 °FPassing clouds.16 mph94%29.89 "HgN/A
8:50 PM50 °FPassing clouds.16 mph88%29.89 "HgN/A
8:20 PM48 °FPassing clouds.17 mph100%29.89 "Hg6 mi
7:50 PM50 °FPartly cloudy.17 mph94%29.89 "Hg6 mi
7:20 PM50 °FPassing clouds.13 mph88%29.89 "HgN/A
6:50 PM50 °FPassing clouds.12 mph94%29.89 "HgN/A
6:20 PM50 °FLow clouds.13 mph94%29.89 "HgN/A
5:50 PM50 °FPassing clouds.12 mph94%29.86 "Hg5 mi
5:20 PM50 °FSprinkles. Passing clouds.14 mph94%29.86 "Hg6 mi
4:50 PM50 °FPassing clouds.12 mph94%29.86 "Hg4 mi
4:20 PM48 °FLight rain. Low clouds.13 mph100%29.86 "Hg3 mi
3:50 PM48 °FPartly sunny.10 mph100%29.86 "Hg4 mi
3:20 PM50 °FLow clouds.10 mph94%29.86 "HgN/A
2:50 PM48 °FLow clouds.10 mph100%29.86 "Hg6 mi
2:20 PM48 °FLow clouds.9 mph100%29.86 "HgN/A
1:50 PM48 °FPartly sunny.7 mph100%29.86 "HgN/A
1:20 PM48 °FPartly sunny.7 mph94%29.86 "HgN/A
12:50 PM48 °FPartly sunny.8 mph94%29.86 "HgN/A
12:20 PM48 °FLow clouds.7 mph94%29.86 "Hg4 mi
11:50 AM48 °FPartly sunny.6 mph94%29.86 "HgN/A
11:20 AM48 °FBroken clouds.6 mph94%29.86 "HgN/A
10:50 AM48 °FPartly sunny.8 mph94%29.86 "HgN/A
10:20 AM46 °FPartly sunny.8 mph100%29.83 "HgN/A
9:50 AM46 °FPartly cloudy.9 mph93%29.83 "HgN/A
9:20 AM46 °FPassing clouds.9 mph93%29.83 "HgN/A
8:50 AM46 °FPartly cloudy.10 mph100%29.83 "HgN/A
8:20 AM48 °FSprinkles. Overcast.12 mph94%29.83 "HgN/A
7:50 AM48 °FMostly cloudy.12 mph94%29.83 "HgN/A
7:20 AM48 °FLow clouds.13 mph94%29.83 "HgN/A
6:50 AM46 °FOvercast.10 mph100%29.83 "HgN/A
6:20 AM46 °FPassing clouds.13 mph100%29.80 "HgN/A
5:50 AM46 °FPassing clouds.14 mph100%29.80 "HgN/A
5:20 AM46 °FLow clouds.13 mph100%29.80 "HgN/A
4:50 AM46 °FPassing clouds.13 mph100%29.80 "Hg6 mi
4:20 AM46 °FPassing clouds.12 mph100%29.80 "Hg6 mi
3:20 AM46 °FSprinkles. Overcast.13 mph100%29.77 "Hg4 mi
2:50 AM46 °FSprinkles. Low clouds.13 mph100%29.77 "Hg3 mi
2:20 AM46 °FLight rain. Low clouds.12 mph100%29.77 "Hg4 mi
1:50 AM46 °FPassing clouds.12 mph100%29.77 "Hg6 mi
1:20 AM46 °FPassing clouds.10 mph100%29.77 "HgN/A
12:50 AM46 °FPassing clouds.14 mph93%29.77 "HgN/A
12:20 AM46 °FPassing clouds.10 mph93%29.77 "HgN/A
11:50 PM
Nov 27
46 °FPassing clouds.13 mph93%29.77 "HgN/A
11:20 PM46 °FPassing clouds.12 mph93%29.77 "HgN/A
Weather by CustomWeather, © 2014

See weather overviewHow to use our weather pages